K1AWR Weather Reports


Display with metric or nautical units.
time (UTC)temp
F
wind
direction
speed
MPH
gust
MPH
rain 1hr
in
rain 24hr
in
rain mn
in
humidity
%
barometer
mb
20260506230243 59 170 2.0 2.0 0.00 0.15 0.15 93 1006.6
20260506225739 59 227 1.0 1.0 0.00 0.15 0.15 93 1006.5
20260506225237 59 126 2.0 2.0 0.00 0.15 0.15 93 1006.6
20260506224732 59 193 1.0 2.0 0.00 0.15 0.15 93 1006.7
20260506224230 59 197 0.0 0.0 0.00 0.15 0.15 93 1006.6
20260506223726 59 253 0.0 0.0 0.00 0.15 0.15 93 1006.5
20260506223222 59 194 1.0 2.0 0.05 0.15 0.15 93 1006.6
20260506222719 59 193 2.0 3.0 0.05 0.15 0.15 93 1006.4
20260506222215 59 242 0.0 0.0 0.00 0.14 0.14 93 1006.6
20260506221713 59 171 0.0 0.0 0.00 0.14 0.14 93 1006.7
20260506221211 59 212 0.0 0.0 0.00 0.14 0.14 93 1006.5
20260506220708 59 170 0.0 0.0 0.12 0.14 0.14 93 1006.6
20260506220202 59 167 1.0 2.0 0.12 0.14 0.14 93 1006.7
20260506215659 59 283 0.0 1.0 0.00 0.12 0.12 93 1006.5
20260506215154 59 283 0.0 1.0 0.07 0.12 0.12 93 1006.7
20260506214652 59 283 0.0 1.0 0.07 0.12 0.12 93 1006.7
20260506214149 59 171 1.0 1.0 0.00 0.11 0.11 92 1006.5
20260506213647 59 169 1.0 2.0 0.00 0.11 0.11 92 1006.6
20260506213144 59 222 1.0 2.0 0.00 0.11 0.11 93 1006.7
20260506212641 59 220 2.0 2.0 0.00 0.11 0.11 92 1006.7
20260506212136 59 161 2.0 2.0 0.00 0.11 0.11 93 1006.8
20260506211632 59 159 1.0 2.0 0.00 0.11 0.11 93 1006.6
20260506211129 59 215 1.0 2.0 0.00 0.11 0.11 93 1006.7
20260506210626 60 156 3.0 4.0 0.00 0.11 0.11 92 1006.7
20260506210122 59 201 2.0 2.0 0.00 0.11 0.11 93 1006.9
20260506205619 59 179 1.0 2.0 0.00 0.11 0.11 93 1006.9
20260506205114 59 165 3.0 3.0 0.00 0.11 0.11 93 1007.0
20260506204612 59 158 1.0 2.0 0.05 0.11 0.11 92 1007.1
20260506204109 59 167 2.0 2.0 0.12 0.11 0.11 92 1007.2
20260506203608 59 202 1.0 2.0 0.07 0.10 0.10 92 1007.1
20260506203103 59 202 1.0 2.0 0.00 0.09 0.09 92 1007.2
20260506202602 59 139 0.0 2.0 0.05 0.09 0.09 92 1007.0
20260506202057 59 184 2.0 2.0 0.05 0.09 0.09 91 1007.1
20260506201555 59 271 0.0 0.0 0.00 0.08 0.08 91 1007.3
20260506201052 59 168 2.0 2.0 0.07 0.08 0.08 91 1007.2
20260506200548 59 273 1.0 2.0 0.07 0.08 0.08 91 1007.3
20260506200045 60 180 0.0 2.0 0.00 0.07 0.07 91 1007.4
20260506195541 60 201 0.0 2.0 0.00 0.07 0.07 91 1007.4
20260506195038 60 259 0.0 2.0 0.00 0.07 0.07 91 1007.4
20260506194536 59 202 1.0 3.0 0.00 0.07 0.07 90 1007.6
20260506194032 59 224 1.0 2.0 0.00 0.07 0.07 91 1007.4
20260506193529 59 168 2.0 2.0 0.00 0.07 0.07 91 1007.5
20260506193026 59 166 1.0 2.0 0.00 0.07 0.07 91 1007.5
20260506192523 59 152 1.0 3.0 0.00 0.07 0.07 91 1007.7
20260506192019 59 200 2.0 2.0 0.00 0.07 0.07 90 1007.6
20260506191516 59 256 2.0 3.0 0.00 0.07 0.07 90 1007.7
20260506191012 59 176 3.0 6.0 0.00 0.07 0.07 90 1007.7
20260506190509 59 179 1.0 2.0 0.00 0.07 0.07 90 1007.8
20260506190006 59 186 1.0 3.0 0.12 0.07 0.07 90 1007.7
20260506185504 60 210 3.0 4.0 0.12 0.07 0.07 90 1007.9
20260506185000 60 215 1.0 2.0 0.00 0.05 0.05 89 1007.9
20260506184457 60 215 1.0 2.0 0.00 0.05 0.05 89 1008.2
20260506183954 60 215 1.0 2.0 0.05 0.05 0.05 89 1007.7
20260506183449 60 171 2.0 2.0 0.05 0.05 0.05 89 1008.0
20260506182947 60 156 1.0 3.0 0.12 0.05 0.05 89 1007.9
20260506182444 60 165 0.0 2.0 0.07 0.04 0.04 89 1008.1
20260506181941 60 217 2.0 2.0 0.00 0.03 0.03 89 1008.0
20260506181439 60 200 1.0 2.0 0.00 0.03 0.03 89 1008.1
20260506180936 60 203 0.0 4.0 0.07 0.03 0.03 88 1007.8
20260506180432 60 185 2.0 3.0 0.07 0.03 0.03 89 1007.8
20260506175929 60 173 1.0 2.0 0.00 0.02 0.02 89 1008.0
20260506175426 60 167 2.0 2.0 0.05 0.02 0.02 88 1008.1
20260506174922 60 174 4.0 4.0 0.05 0.02 0.02 88 1008.0
20260506174420 61 190 2.0 6.0 0.00 0.01 0.01 87 1008.4
20260506173917 61 175 2.0 2.0 0.07 0.01 0.01 86 1008.7
20260506173414 61 154 1.0 3.0 0.07 0.01 0.01 85 1008.4
20260506172911 62 180 3.0 3.0 0.00 0.00 0.00 84 1008.7
20260506172408 62 157 1.0 2.0 0.00 0.00 0.00 82 1009.1
20260506171905 62 226 3.0 3.0 0.00 0.00 0.00 80 1008.8
20260506171402 63 170 3.0 3.0 0.00 0.00 0.00 79 1009.0
20260506170900 64 180 1.0 3.0 0.00 0.00 0.00 77 1009.2
20260506170356 64 194 2.0 4.0 0.00 0.00 0.00 75 1009.2
20260506165855 64 325 2.0 4.0 0.00 0.00 0.00 73 1009.3
20260506165353 65 167 2.0 4.0 0.00 0.00 0.00 72 1009.2
20260506164849 66 171 1.0 4.0 0.00 0.00 0.00 71 1009.1
20260506164345 66 227 2.0 3.0 0.00 0.00 0.00 71 1009.2
20260506163843 66 163 1.0 2.0 0.00 0.00 0.00 71 1009.2
20260506163338 66 202 2.0 3.0 0.00 0.00 0.00 70 1009.0
20260506162833 66 176 4.0 6.0 0.00 0.00 0.00 68 1008.9
20260506162331 67 253 3.0 3.0 0.00 0.00 0.00 68 1008.8
20260506161829 67 234 2.0 6.0 0.00 0.00 0.00 68 1008.7
20260506161326 68 154 2.0 3.0 0.00 0.00 0.00 67 1008.8
20260506160823 68 161 4.0 4.0 0.00 0.00 0.00 66 1009.1
20260506160319 67 245 2.0 3.0 0.00 0.00 0.00 67 1009.0
20260506155819 67 245 2.0 3.0 0.00 0.00 0.00 67 1009.2
20260506155315 67 159 4.0 4.0 0.00 0.00 0.00 67 1009.2
20260506153427 68 179 1.0 2.0 0.00 0.00 0.00 66 1009.2
20260506152925 68 3 1.0 1.0 0.00 0.00 0.00 66 1009.4
20260506152421 67 177 0.0 3.0 0.00 0.00 0.00 67 1009.3
20260506151920 67 313 1.0 3.0 0.00 0.00 0.00 67 1009.4
20260506151416 67 198 1.0 1.0 0.00 0.00 0.00 68 1009.4
20260506150914 67 324 2.0 2.0 0.00 0.00 0.00 67 1009.3
20260506150410 67 152 4.0 6.0 0.00 0.00 0.00 67 1009.6
20260506145907 66 190 0.0 1.0 0.00 0.00 0.00 68 1009.5
20260506145403 66 204 1.0 2.0 0.00 0.00 0.00 69 1009.5
20260506144901 66 169 3.0 3.0 0.00 0.00 0.00 69 1009.6
20260506144357 66 193 1.0 2.0 0.00 0.00 0.00 69 1009.5
20260506143856 66 193 1.0 3.0 0.00 0.00 0.00 68 1009.7
20260506143352 66 137 0.0 0.0 0.00 0.00 0.00 69 1009.8
20260506142851 66 126 2.0 3.0 0.00 0.00 0.00 69 1009.7
20260506142348 67 135 0.0 0.0 0.00 0.00 0.00 69 1010.0
20260506141846 66 165 2.0 2.0 0.00 0.00 0.00 69 1009.9
20260506141344 65 221 2.0 2.0 0.00 0.00 0.00 71 1009.9
20260506140842 65 176 2.0 3.0 0.00 0.00 0.00 71 1009.9
20260506140339 65 176 2.0 4.0 0.00 0.00 0.00 72 1009.8
20260506135836 65 299 0.0 1.0 0.00 0.00 0.00 72 1010.0
20260506135332 64 313 1.0 3.0 0.00 0.00 0.00 72 1009.7
20260506134829 64 224 2.0 3.0 0.00 0.00 0.00 72 1009.7
20260506134325 64 191 2.0 3.0 0.00 0.00 0.00 73 1009.8
20260506133822 64 176 3.0 4.0 0.00 0.00 0.00 73 1009.7
20260506133319 64 150 2.0 4.0 0.00 0.00 0.00 74 1009.6
20260506132816 64 254 1.0 2.0 0.00 0.00 0.00 74 1009.6
20260506132313 64 210 2.0 3.0 0.00 0.00 0.00 74 1009.8
20260506131811 63 198 1.0 2.0 0.00 0.00 0.00 74 1009.9
20260506131307 63 30 2.0 3.0 0.00 0.00 0.00 74 1009.8
20260506130804 63 200 2.0 2.0 0.00 0.00 0.00 75 1009.9
20260506130300 62 222 3.0 6.0 0.00 0.00 0.00 76 1010.1
20260506125759 62 349 2.0 3.0 0.00 0.00 0.00 76 1010.0
20260506125256 62 167 1.0 3.0 0.00 0.00 0.00 75 1010.0
20260506124754 62 199 1.0 1.0 0.00 0.00 0.00 76 1010.1
20260506124252 62 143 1.0 2.0 0.00 0.00 0.00 76 1010.4
20260506123749 62 155 1.0 1.0 0.00 0.00 0.00 76 1010.4
20260506123248 62 177 3.0 4.0 0.00 0.00 0.00 76 1010.4
20260506122744 62 225 0.0 1.0 0.00 0.00 0.00 76 1010.5
20260506122241 62 180 4.0 6.0 0.00 0.00 0.00 76 1010.3
20260506121739 62 193 1.0 3.0 0.00 0.00 0.00 76 1010.5
20260506121236 61 179 2.0 2.0 0.00 0.00 0.00 78 1010.3
20260506120733 61 180 1.0 4.0 0.00 0.00 0.00 78 1010.1
20260506120231 61 188 0.0 2.0 0.00 0.00 0.00 78 1010.3
20260506115729 61 191 0.0 1.0 0.00 0.00 0.00 78 1010.3
20260506115227 61 207 3.0 3.0 0.00 0.00 0.00 78 1010.4
20260506114724 60 186 3.0 3.0 0.00 0.00 0.00 79 1010.1
20260506114221 60 194 1.0 2.0 0.00 0.00 0.00 79 1010.5
20260506113720 60 146 1.0 3.0 0.00 0.00 0.00 79 1010.4
20260506113217 60 202 2.0 4.0 0.00 0.00 0.00 79 1010.5
20260506112713 60 219 0.0 3.0 0.00 0.00 0.00 79 1010.2
20260506112211 60 166 2.0 3.0 0.00 0.00 0.00 79 1010.3
20260506111708 59 211 0.0 3.0 0.00 0.00 0.00 81 1010.5
20260506111206 59 184 2.0 3.0 0.00 0.00 0.00 81 1010.7
20260506110703 59 205 3.0 3.0 0.00 0.00 0.00 81 1010.6
20260506110200 59 303 0.0 1.0 0.00 0.00 0.00 82 1010.7
20260506105657 58 152 1.0 2.0 0.00 0.00 0.00 83 1010.5
20260506105154 58 193 1.0 3.0 0.00 0.00 0.00 83 1010.4
20260506104652 58 238 0.0 3.0 0.00 0.00 0.00 83 1010.7
20260506104149 58 208 0.0 1.0 0.00 0.00 0.00 83 1010.8
20260506103646 58 181 1.0 2.0 0.00 0.00 0.00 83 1010.6
20260506103143 58 205 0.0 2.0 0.00 0.00 0.00 83 1010.5
20260506102641 58 201 0.0 2.0 0.00 0.00 0.00 83 1010.5
20260506102138 58 177 2.0 3.0 0.00 0.00 0.00 83 1010.2
20260506101635 57 248 0.0 2.0 0.00 0.00 0.00 84 1010.3
20260506101132 57 181 0.0 1.0 0.00 0.00 0.00 84 1010.2
20260506100631 57 187 1.0 1.0 0.00 0.00 0.00 83 1010.6
20260506100128 57 225 2.0 3.0 0.00 0.00 0.00 83 1010.2
20260506095627 57 182 0.0 3.0 0.00 0.00 0.00 84 1010.3
20260506095123 57 226 1.0 2.0 0.00 0.00 0.00 83 1010.3
20260506094620 57 168 1.0 1.0 0.00 0.00 0.00 83 1010.2
20260506094118 57 182 1.0 1.0 0.00 0.00 0.00 83 1010.2
20260506093616 57 183 0.0 2.0 0.00 0.00 0.00 83 1010.3
20260506093113 57 196 1.0 2.0 0.00 0.00 0.00 83 1010.3
20260506092611 57 216 1.0 4.0 0.00 0.00 0.00 82 1010.2
20260506092108 57 161 2.0 2.0 0.00 0.00 0.00 82 1010.2
20260506091606 58 267 0.0 2.0 0.00 0.00 0.00 82 1010.2
20260506091103 57 181 1.0 2.0 0.00 0.00 0.00 82 1010.3
20260506090601 57 180 0.0 1.0 0.00 0.00 0.00 82 1010.3
20260506090057 58 206 0.0 2.0 0.00 0.00 0.00 81 1010.2
20260506085554 58 202 1.0 2.0 0.00 0.00 0.00 81 1010.3
20260506085050 58 171 3.0 3.0 0.00 0.00 0.00 81 1010.2
20260506084547 58 196 0.0 2.0 0.00 0.00 0.00 81 1010.1
20260506084043 58 185 0.0 2.0 0.00 0.00 0.00 81 1010.5
20260506083541 58 188 0.0 1.0 0.00 0.00 0.00 80 1010.3
20260506083038 58 165 2.0 2.0 0.00 0.00 0.00 80 1010.5
20260506082535 58 187 1.0 2.0 0.00 0.00 0.00 80 1010.3
20260506082030 58 202 1.0 1.0 0.00 0.00 0.00 80 1010.5
20260506081529 58 185 1.0 2.0 0.00 0.00 0.00 80 1010.4
20260506081026 59 166 2.0 2.0 0.00 0.00 0.00 79 1010.2
20260506080523 59 174 1.0 3.0 0.00 0.00 0.00 79 1010.2
20260506073507 59 209 0.0 4.0 0.00 0.00 0.00 79 1010.4
20260506073004 59 184 1.0 4.0 0.00 0.00 0.00 79 1010.3
20260506072501 59 170 1.0 2.0 0.00 0.00 0.00 78 1010.3
20260506071959 59 207 0.0 2.0 0.00 0.00 0.00 77 1010.6
20260506071456 59 178 1.0 2.0 0.00 0.00 0.00 77 1010.6
20260506070953 59 170 0.0 2.0 0.00 0.00 0.00 78 1010.6
20260506070450 59 174 2.0 2.0 0.00 0.00 0.00 77 1010.6
20260506062428 61 182 2.0 2.0 0.00 0.00 0.00 75 1010.3
20260506061923 61 185 1.0 1.0 0.00 0.00 0.00 75 1010.2
20260506061420 61 166 2.0 3.0 0.00 0.00 0.00 75 1010.1
20260506060918 61 197 3.0 3.0 0.00 0.00 0.00 75 1010.3
20260506060416 61 198 1.0 2.0 0.00 0.00 0.00 74 1010.2
20260506051348 62 173 2.0 3.0 0.00 0.00 0.00 72 1010.4
20260506050845 62 279 1.0 4.0 0.00 0.00 0.00 72 1010.3
20260506050343 62 211 2.0 3.0 0.00 0.00 0.00 72 1010.6
20260506044833 63 168 3.0 8.0 0.00 0.00 0.00 70 1010.7
20260506044331 62 198 3.0 3.0 0.00 0.00 0.00 70 1010.6
20260506043828 63 157 1.0 3.0 0.00 0.00 0.00 69 1010.6
20260506043325 63 185 1.0 3.0 0.00 0.00 0.00 68 1010.5
20260506042823 63 201 2.0 4.0 0.00 0.00 0.00 68 1010.5
20260506042322 63 189 1.0 3.0 0.00 0.00 0.00 68 1010.5
20260506041821 63 178 2.0 3.0 0.00 0.00 0.00 68 1010.5
20260506041317 63 151 4.0 6.0 0.00 0.00 0.00 67 1010.5
20260506040814 63 188 2.0 4.0 0.00 0.00 0.00 67 1010.3
20260506040312 63 179 2.0 6.0 0.00 0.00 0.00 68 1010.4
20260506035808 63 181 2.0 3.0 0.00 0.00 0.00 67 1010.5
20260506035306 63 153 2.0 3.0 0.00 0.00 0.00 66 1010.5
20260506034802 63 182 3.0 4.0 0.00 0.00 0.00 66 1010.5
20260506034259 63 222 2.0 3.0 0.00 0.00 0.00 67 1010.4
20260506033756 63 243 1.0 3.0 0.00 0.00 0.00 66 1010.7
20260506033253 63 212 1.0 3.0 0.00 0.00 0.00 66 1010.6
20260506032750 63 197 2.0 4.0 0.00 0.00 0.00 66 1010.8
20260506032247 63 269 0.0 3.0 0.00 0.00 0.00 66 1010.7
20260506031744 63 162 2.0 3.0 0.00 0.00 0.00 66 1010.6
20260506031241 63 155 5.0 7.0 0.00 0.00 0.00 66 1010.5
20260506030739 63 153 2.0 3.0 0.00 0.00 0.00 66 1010.6
20260506030236 63 163 1.0 2.0 0.00 0.00 0.00 66 1010.7
20260506025733 63 193 0.0 4.0 0.00 0.00 0.00 66 1010.6
20260506025230 63 11 2.0 3.0 0.00 0.00 0.00 66 1010.5
20260506024726 64 189 1.0 3.0 0.00 0.00 0.00 65 1010.5
20260506024223 64 188 2.0 4.0 0.00 0.00 0.00 65 1010.5
20260506023719 64 198 2.0 3.0 0.00 0.00 0.00 65 1010.6
20260506023217 64 192 3.0 3.0 0.00 0.00 0.00 65 1010.4
20260506022713 64 191 1.0 2.0 0.00 0.00 0.00 64 1010.5
20260506022211 64 142 3.0 6.0 0.00 0.00 0.00 64 1010.4
20260506021709 64 196 1.0 3.0 0.00 0.00 0.00 65 1010.6
20260506021206 64 262 3.0 4.0 0.00 0.00 0.00 63 1010.3
20260506020703 64 173 2.0 4.0 0.00 0.00 0.00 64 1010.6
20260506020201 64 174 1.0 1.0 0.00 0.00 0.00 64 1010.4
20260506015658 64 171 4.0 4.0 0.00 0.00 0.00 62 1010.4
20260506015155 64 134 3.0 4.0 0.00 0.00 0.00 63 1010.4
20260506014652 64 168 1.0 2.0 0.00 0.00 0.00 63 1010.6
20260506014148 64 140 3.0 3.0 0.00 0.00 0.00 62 1010.2
20260506013646 64 227 2.0 3.0 0.00 0.00 0.00 62 1010.3
20260506013143 64 100 1.0 2.0 0.00 0.00 0.00 62 1010.2
20260506012639 65 214 1.0 1.0 0.00 0.00 0.00 62 1010.2
20260506012136 65 145 2.0 4.0 0.00 0.00 0.00 61 1010.1
20260506011633 65 194 2.0 2.0 0.00 0.00 0.00 60 1010.1
20260506011129 65 308 1.0 3.0 0.00 0.00 0.00 60 1009.9
20260506010628 66 204 2.0 2.0 0.00 0.00 0.00 60 1010.1
20260506010125 66 180 3.0 3.0 0.00 0.00 0.00 60 1009.9
20260506005622 66 169 1.0 2.0 0.00 0.00 0.00 60 1009.7
20260506005118 66 334 2.0 3.0 0.00 0.00 0.00 59 1009.6
20260506004615 66 184 2.0 2.0 0.00 0.00 0.00 60 1009.7
20260506004112 66 258 3.0 6.0 0.00 0.00 0.00 59 1009.7
20260506003608 67 191 2.0 7.0 0.00 0.00 0.00 59 1009.5
20260506003104 67 154 2.0 4.0 0.00 0.00 0.00 59 1009.4
20260506002600 67 195 2.0 7.0 0.00 0.00 0.00 58 1009.4
20260506002057 67 190 1.0 2.0 0.00 0.00 0.00 59 1009.4
20260506001553 67 204 3.0 7.0 0.00 0.00 0.00 58 1009.4
20260506001050 68 225 2.0 2.0 0.00 0.00 0.00 59 1009.3
20260506000548 68 173 3.0 4.0 0.00 0.00 0.00 57 1009.0
20260506000045 68 209 1.0 2.0 0.00 0.00 0.00 58 1009.0
20260505235543 68 211 2.0 3.0 0.00 0.00 0.00 57 1009.2
20260505235039 68 157 2.0 2.0 0.00 0.00 0.00 59 1008.9
20260505234536 68 204 2.0 3.0 0.00 0.00 0.00 58 1008.8
20260505234033 68 193 3.0 4.0 0.00 0.00 0.00 57 1008.7
20260505233531 68 181 1.0 4.0 0.00 0.00 0.00 58 1008.5
20260505233028 69 246 2.0 3.0 0.00 0.00 0.00 57 1008.5
20260505232526 69 280 1.0 3.0 0.00 0.00 0.00 56 1008.6
20260505232023 69 203 2.0 4.0 0.00 0.00 0.00 56 1008.8
20260505231520 70 328 1.0 6.0 0.00 0.00 0.00 55 1008.5
20260505231019 70 229 1.0 8.0 0.00 0.00 0.00 55 1008.4